Torna al catalogo

STARLINK-4319

AttivoComunicazioniSSO
NORAD 53084·PAYLOAD·🇺🇸 United States

Lanciato Jul 11, 2022 da Vandenberg Space Force Base

Loading…

Prossimi Passaggi (prossime 24 ore)

TLE

AggiornatoSource: CelesTrak SupGP

Epoca: Sep 14, 2026, 22:11 UTC

1 53084C 22077AT  26257.92479167  .00060947  00000+0  18914-2 0  2572
2 53084  97.2860  73.7342 0001625  94.2757 193.6186 15.33416249    11

Traccia STARLINK-4319 in tempo reale con AllMySat

Download on the App Store